DW2659 Weather Reports


time (UTC)temp
C
wind
direction
speed
KPH
gust
KPH
rain 1hr
cm
rain 24hr
cm
rain mn
cm
humidity
%
barometer
mb
20260906124903 23 240 1.6 3.2 0.00 0.00 0.00 90 1013.1
20260906124402 23 240 0.0 1.6 0.00 0.00 0.00 92 1013.0
20260906123403 23 240 0.0 1.6 0.00 0.00 0.00 92 1013.0
20260906122403 23 240 0.0 1.6 0.00 0.00 0.00 92 1012.9
20260906121903 22 240 0.0 1.6 0.00 0.00 0.00 92 1012.9
20260906120904 22 240 0.0 0.0 0.00 0.00 0.00 92 1012.8
20260906115903 22 240 0.0 0.0 0.00 0.00 0.00 92 1012.6
20260906115405 22 240 0.0 0.0 0.00 0.00 0.00 92 1012.6
20260906114903 22 240 0.0 0.0 0.00 0.00 0.00 91 1012.6
20260906114403 22 240 0.0 0.0 0.00 0.00 0.00 91 1012.4
20260906113902 22 240 0.0 0.0 0.00 0.00 0.00 91 1012.4
20260906113404 22 240 0.0 0.0 0.00 0.00 0.00 91 1012.4
20260906112903 22 240 0.0 0.0 0.00 0.00 0.00 91 1012.4
20260906111904 22 240 1.6 1.6 0.00 0.00 0.00 91 1012.4
20260906110405 22 240 0.0 0.0 0.00 0.00 0.00 91 1012.1
20260906105403 22 240 0.0 0.0 0.00 0.00 0.00 91 1012.1
20260906103903 22 240 0.0 0.0 0.00 0.00 0.00 90 1012.2
20260906103403 22 240 0.0 0.0 0.00 0.00 0.00 90 1012.2
20260906102904 22 240 0.0 1.6 0.00 0.00 0.00 90 1012.2
20260906101404 23 240 0.0 0.0 0.00 0.00 0.00 90 1012.2
20260906100903 23 240 0.0 1.6 0.00 0.00 0.00 90 1012.3
20260906100403 23 240 0.0 1.6 0.00 0.00 0.00 90 1012.3
20260906095403 23 240 0.0 1.6 0.00 0.00 0.00 89 1012.3
20260906094903 23 240 0.0 1.6 0.00 0.00 0.00 89 1012.3
20260906094403 23 240 0.0 1.6 0.00 0.00 0.00 89 1012.4
20260906093905 23 240 1.6 3.2 0.00 0.00 0.00 89 1012.4
20260906093403 23 240 0.0 1.6 0.00 0.00 0.00 89 1012.4
20260906092903 23 240 0.0 3.2 0.00 0.00 0.00 89 1012.5
20260906092404 23 145 0.0 3.2 0.00 0.00 0.00 90 1012.5
20260906091903 23 126 0.0 1.6 0.00 0.00 0.00 90 1012.5
20260906091403 23 127 1.6 3.2 0.00 0.00 0.00 89 1012.6
20260906090904 23 209 0.0 0.0 0.00 0.00 0.00 90 1012.6
20260906090403 23 209 0.0 1.6 0.00 0.00 0.00 90 1012.6
20260906085404 22 106 0.0 1.6 0.00 0.00 0.00 90 1012.6
20260906084903 22 106 0.0 3.2 0.00 0.00 0.00 90 1012.6
20260906083904 22 306 1.6 8.0 0.00 0.00 0.00 91 1012.3
20260906082903 22 57 1.6 3.2 0.00 0.00 0.00 91 1012.3
20260906082403 22 121 0.0 1.6 0.00 0.00 0.00 91 1012.3
20260906081904 22 121 1.6 1.6 0.00 0.00 0.00 91 1012.3
20260906081403 22 121 0.0 0.0 0.00 0.00 0.00 91 1012.4
20260906080405 22 121 0.0 1.6 0.00 0.00 0.00 91 1012.4
20260906075403 22 121 1.6 3.2 0.00 0.00 0.00 91 1012.4
20260906074903 22 197 1.6 3.2 0.00 0.00 0.00 92 1012.4
20260906074404 22 197 1.6 4.8 0.00 0.00 0.00 92 1012.0
20260906073903 22 294 1.6 3.2 0.00 0.00 0.00 92 1012.0
20260906072903 22 119 0.0 0.0 0.00 0.00 0.00 92 1011.9
20260906072404 22 119 0.0 1.6 0.00 0.00 0.00 92 1011.9
20260906071903 22 119 0.0 1.6 0.00 0.00 0.00 92 1011.9
20260906071403 22 119 0.0 1.6 0.00 0.00 0.00 92 1012.1
20260906070904 22 119 0.0 0.0 0.00 0.00 0.00 92 1012.1
20260906070403 22 119 0.0 0.0 0.00 0.00 0.00 92 1012.1
20260906065903 22 119 0.0 0.0 0.00 0.00 0.00 92 1012.3
20260906065404 22 119 0.0 0.0 0.00 0.00 0.00 92 1012.3
20260906064404 22 119 1.6 1.6 0.00 0.00 0.00 92 1012.3
20260906063403 22 119 0.0 1.6 0.00 0.00 0.00 91 1012.4
20260906062903 22 119 1.6 1.6 0.00 0.00 0.00 91 1012.4
20260906062404 22 119 1.6 1.6 0.00 0.00 0.00 91 1012.4
20260906061903 22 119 0.0 0.0 0.00 0.00 0.00 91 1012.4
20260906061403 22 119 0.0 1.6 0.00 0.00 0.00 91 1012.4
20260906060904 22 119 1.6 1.6 0.00 0.00 0.00 91 1012.4
20260906060403 22 119 0.0 1.6 0.00 0.00 0.00 91 1012.4
20260906055405 22 119 0.0 1.6 0.00 0.00 0.00 91 1012.6
20260906054904 22 119 1.6 3.2 0.00 0.00 0.00 91 1012.6
20260906054403 22 119 0.0 1.6 0.00 0.00 0.00 90 1012.7
20260906053904 22 119 1.6 3.2 0.00 0.00 0.00 91 1012.7
20260906053403 22 119 1.6 3.2 0.00 0.00 0.00 90 1012.7
20260906052903 22 119 0.0 0.0 0.00 0.00 0.00 90 1012.7
20260906052404 22 119 0.0 1.6 0.00 0.00 0.00 90 1012.7
20260906051904 22 119 0.0 1.6 0.00 0.00 0.00 90 1012.7
20260906051404 22 119 0.0 0.0 0.00 0.00 0.00 90 1012.7
20260906050904 22 119 0.0 3.2 0.00 0.00 0.00 90 1012.7
20260906050403 22 119 1.6 3.2 0.00 0.00 0.00 90 1012.7
20260906045903 22 119 0.0 1.6 0.00 0.00 0.00 90 1013.2
20260906045404 22 119 1.6 1.6 0.00 0.00 0.00 90 1013.2
20260906044903 23 119 1.6 1.6 0.00 0.00 0.00 90 1013.2
20260906044403 23 119 1.6 1.6 0.00 0.00 0.00 90 1013.2
20260906043905 23 119 0.0 1.6 0.00 0.00 0.00 89 1013.2
20260906043403 23 119 0.0 3.2 0.00 0.00 0.00 89 1013.2
20260906042903 23 119 0.0 3.2 0.00 0.00 0.00 89 1013.2
20260906042405 23 119 0.0 3.2 0.00 0.00 0.00 89 1013.3
20260906041403 23 11 0.0 1.6 0.00 0.00 0.00 89 1013.2
20260906040904 23 11 1.6 3.2 0.00 0.00 0.00 89 1013.2
20260906040403 23 11 1.6 1.6 0.00 0.00 0.00 89 1013.2
20260906035903 23 11 1.6 1.6 0.00 0.00 0.00 89 1013.1
20260906034904 23 11 0.0 1.6 0.00 0.00 0.00 89 1013.1
20260906034403 23 11 0.0 3.2 0.00 0.00 0.00 88 1013.0
20260906033903 23 11 1.6 3.2 0.00 0.00 0.00 88 1013.0
20260906033404 23 11 0.0 1.6 0.00 0.00 0.00 87 1013.0
20260906032903 23 11 1.6 1.6 0.00 0.00 0.00 87 1012.9
20260906032403 23 11 0.0 1.6 0.00 0.00 0.00 87 1012.9
20260906031905 23 11 0.0 0.0 0.00 0.00 0.00 87 1012.9
20260906030903 23 11 1.6 1.6 0.00 0.00 0.00 86 1012.9
20260906030405 23 11 0.0 0.0 0.00 0.00 0.00 86 1012.9
20260906025903 23 11 0.0 0.0 0.00 0.00 0.00 85 1012.9
20260906024905 23 11 0.0 1.6 0.00 0.00 0.00 85 1012.9
20260906023904 24 11 0.0 0.0 0.00 0.00 0.00 85 1012.7
20260906022904 24 11 0.0 0.0 0.00 0.00 0.00 84 1012.5
20260906022404 24 11 0.0 0.0 0.00 0.00 0.00 84 1012.5
20260906021903 24 11 0.0 0.0 0.00 0.00 0.00 84 1012.5
20260906021405 24 11 0.0 0.0 0.00 0.00 0.00 84 1012.5
20260906020903 25 11 0.0 0.0 0.00 0.00 0.00 84 1012.5
20260906020404 25 11 0.0 0.0 0.00 0.00 0.00 83 1012.5
20260906015905 25 11 0.0 1.6 0.00 0.00 0.00 83 1012.7
20260906015404 25 11 1.6 3.2 0.00 0.00 0.00 83 1012.6
20260906014904 25 11 0.0 0.0 0.00 0.00 0.00 82 1012.6
20260906014405 25 11 0.0 0.0 0.00 0.00 0.00 82 1012.4
20260906013904 25 11 0.0 1.6 0.00 0.00 0.00 82 1012.4
20260906013405 25 11 0.0 1.6 0.00 0.00 0.00 82 1012.4
20260906012904 25 11 0.0 1.6 0.00 0.00 0.00 82 1012.2
20260906011905 25 11 0.0 0.0 0.00 0.00 0.00 82 1012.2
20260906010903 25 11 0.0 0.0 0.00 0.00 0.00 83 1011.4
20260906010405 25 11 0.0 0.0 0.00 0.00 0.00 83 1011.4
20260906005904 25 11 0.0 0.0 0.00 0.00 0.00 83 1011.4
20260906005403 25 11 0.0 1.6 0.00 0.00 0.00 82 1011.4
20260906004904 25 11 0.0 1.6 0.00 0.00 0.00 83 1011.4
20260906004403 26 11 0.0 0.0 0.00 0.00 0.00 82 1011.3
20260906003903 26 11 0.0 0.0 0.00 0.00 0.00 81 1011.3
20260906003405 26 11 0.0 3.2 0.00 0.00 0.00 81 1011.3
20260906002904 26 11 0.0 1.6 0.00 0.00 0.00 80 1011.4
20260906002403 26 11 1.6 3.2 0.00 0.00 0.00 80 1011.5
20260906001905 26 11 0.0 3.2 0.00 0.00 0.00 79 1011.5
20260906001403 27 11 0.0 0.0 0.00 0.00 0.00 79 1011.6
20260906000903 27 11 0.0 1.6 0.00 0.00 0.00 78 1011.6
20260906000405 27 11 0.0 1.6 0.00 0.00 0.00 77 1011.6
20260905235903 27 11 0.0 1.6 0.00 0.00 0.00 76 1011.8
20260905235403 27 11 1.6 3.2 0.00 0.00 0.00 75 1011.8
20260905234905 28 11 1.6 3.2 0.00 0.00 0.00 74 1011.8
20260905234404 28 11 1.6 3.2 0.00 0.00 0.00 73 1011.8
20260905233903 28 11 1.6 3.2 0.00 0.00 0.00 71 1011.9
20260905233404 28 11 1.6 1.6 0.00 0.00 0.00 70 1011.7
20260905232905 28 11 0.0 0.0 0.00 0.00 0.00 70 1011.7
20260905232404 28 11 0.0 0.0 0.00 0.00 0.00 69 1011.7
20260905231405 29 11 0.0 0.0 0.00 0.00 0.00 68 1011.4
20260905225905 30 11 1.6 3.2 0.00 0.00 0.00 64 1011.4
20260905225403 30 11 1.6 3.2 0.00 0.00 0.00 64 1011.0
20260905224904 31 11 1.6 3.2 0.00 0.00 0.00 62 1011.0
20260905224405 31 11 1.6 3.2 0.00 0.00 0.00 63 1011.0
20260905222904 32 11 1.6 4.8 0.00 0.00 0.00 60 1011.7
20260905222404 32 11 1.6 4.8 0.00 0.00 0.00 61 1011.7
20260905221904 32 11 1.6 3.2 0.00 0.00 0.00 60 1011.7
20260905221405 32 11 0.0 1.6 0.00 0.00 0.00 60 1012.1
20260905220904 32 11 1.6 3.2 0.00 0.00 0.00 60 1012.1
20260905220404 32 11 1.6 4.8 0.00 0.00 0.00 60 1012.1
20260905215403 32 11 1.6 3.2 0.00 0.00 0.00 60 1012.1
20260905214904 32 11 1.6 3.2 0.00 0.00 0.00 61 1012.1
20260905213904 31 11 1.6 4.8 0.00 0.00 0.00 64 1012.1
20260905213404 30 11 3.2 4.8 0.00 0.00 0.00 66 1012.1
20260905212905 30 9 3.2 4.8 0.00 0.00 0.00 68 1011.9
20260905212404 29 22 3.2 4.8 0.00 0.00 0.00 66 1011.9
20260905211904 30 22 4.8 8.0 0.00 0.00 0.00 65 1011.9
20260905211405 31 33 4.8 8.0 0.00 0.00 0.00 65 1011.7
20260905210904 31 31 3.2 8.0 0.00 0.00 0.00 61 1011.7
20260905205905 32 19 11.3 19.3 0.00 0.00 0.00 51 1011.5
20260905205404 34 24 9.7 16.1 0.00 0.00 0.00 49 1011.5
20260905204904 36 16 9.7 16.1 0.00 0.00 0.00 45 1011.5
20260905204405 37 12 9.7 19.3 0.00 0.00 0.00 45 1011.5
20260905203904 37 19 3.2 11.3 0.00 0.00 0.00 47 1011.5
20260905203404 36 47 3.2 4.8 0.00 0.00 0.00 49 1011.5
20260905202904 36 39 1.6 4.8 0.00 0.00 0.00 49 1011.5
20260905202404 36 13 4.8 8.0 0.00 0.00 0.00 50 1011.5
20260905201903 36 23 3.2 8.0 0.00 0.00 0.00 50 1011.5
20260905201405 36 15 3.2 4.8 0.00 0.00 0.00 49 1011.5
20260905200903 35 71 1.6 3.2 0.00 0.00 0.00 54 1011.5
20260905200404 35 71 0.0 3.2 0.00 0.00 0.00 55 1011.6
20260905195403 35 71 0.0 1.6 0.00 0.00 0.00 55 1011.5
20260905194904 35 71 0.0 0.0 0.00 0.00 0.00 54 1011.5
20260905193905 36 71 0.0 0.0 0.00 0.00 0.00 54 1011.8
20260905193403 36 71 0.0 0.0 0.00 0.00 0.00 54 1011.8
20260905191904 37 71 0.0 0.0 0.00 0.00 0.00 50 1012.1
20260905191404 37 71 0.0 1.6 0.00 0.00 0.00 49 1012.1
20260905190905 37 71 0.0 1.6 0.00 0.00 0.00 48 1012.1
20260905190404 37 62 1.6 3.2 0.00 0.00 0.00 47 1012.1
20260905185904 37 5 1.6 8.0 0.00 0.00 0.00 46 1012.1
20260905185405 37 23 3.2 4.8 0.00 0.00 0.00 48 1012.1
20260905184904 37 23 4.8 4.8 0.00 0.00 0.00 45 1012.1
20260905184404 37 295 3.2 4.8 0.00 0.00 0.00 45 1012.1
20260905183905 37 358 3.2 8.0 0.00 0.00 0.00 46 1012.1
20260905183403 37 62 3.2 8.0 0.00 0.00 0.00 45 1012.2
20260905182904 36 71 3.2 4.8 0.00 0.00 0.00 45 1012.4
20260905182405 36 93 3.2 8.0 0.00 0.00 0.00 46 1012.4
20260905181402 36 231 1.6 4.8 0.00 0.00 0.00 45 1012.5
20260905180904 36 32 3.2 4.8 0.00 0.00 0.00 47 1012.8
20260905180402 36 242 1.6 4.8 0.00 0.00 0.00 46 1012.8
20260905174902 36 83 3.2 4.8 0.00 0.00 0.00 45 1013.2
20260905174402 36 11 3.2 8.0 0.00 0.00 0.00 49 1013.2
20260905173904 36 68 1.6 4.8 0.00 0.00 0.00 47 1013.2
20260905173402 36 70 3.2 8.0 0.00 0.00 0.00 48 1013.2
20260905172902 36 105 1.6 4.8 0.00 0.00 0.00 47 1013.2
20260905172404 36 276 3.2 4.8 0.00 0.00 0.00 48 1013.2
20260905171902 36 216 1.6 3.2 0.00 0.00 0.00 50 1013.2
20260905171402 36 90 1.6 4.8 0.00 0.00 0.00 49 1013.4
20260905170903 36 0 1.6 4.8 0.00 0.00 0.00 52 1013.4
20260905170403 36 248 4.8 4.8 0.00 0.00 0.00 51 1013.4
20260905165402 35 353 3.2 4.8 0.00 0.00 0.00 51 1013.6
20260905164403 35 139 6.4 11.3 0.00 0.00 0.00 53 1013.9
20260905163902 35 57 1.6 4.8 0.00 0.00 0.00 53 1013.9
20260905163404 35 354 1.6 4.8 0.00 0.00 0.00 55 1013.9
20260905162402 35 80 1.6 3.2 0.00 0.00 0.00 55 1014.0
20260905161402 34 199 3.2 4.8 0.00 0.00 0.00 56 1014.1
20260905160903 34 345 1.6 3.2 0.00 0.00 0.00 57 1014.1
20260905160404 34 106 1.6 4.8 0.00 0.00 0.00 57 1014.1
20260905155902 34 50 1.6 4.8 0.00 0.00 0.00 59 1014.2
20260905155403 33 33 1.6 4.8 0.00 0.00 0.00 60 1014.2
20260905154903 33 114 1.6 3.2 0.00 0.00 0.00 59 1014.4
20260905154403 33 59 3.2 4.8 0.00 0.00 0.00 59 1014.4
20260905153902 33 38 1.6 4.8 0.00 0.00 0.00 62 1014.4
20260905152902 32 98 1.6 3.2 0.00 0.00 0.00 62 1014.4
20260905152403 32 118 3.2 4.8 0.00 0.00 0.00 61 1014.4
20260905151903 32 48 3.2 8.0 0.00 0.00 0.00 61 1014.4
20260905151403 32 119 3.2 4.8 0.00 0.00 0.00 62 1014.6
20260905150902 32 90 4.8 8.0 0.00 0.00 0.00 61 1014.6
20260905145902 31 99 3.2 8.0 0.00 0.00 0.00 63 1014.9
20260905144904 32 176 3.2 4.8 0.00 0.00 0.00 61 1014.9
20260905144403 31 120 1.6 4.8 0.00 0.00 0.00 65 1014.9
20260905143902 31 68 1.6 4.8 0.00 0.00 0.00 65 1014.9
20260905142903 31 153 3.2 8.0 0.00 0.00 0.00 67 1014.9
20260905142402 31 5 1.6 3.2 0.00 0.00 0.00 67 1014.9
20260905141904 30 25 1.6 3.2 0.00 0.00 0.00 69 1014.9
20260905141402 30 75 0.0 4.8 0.00 0.00 0.00 70 1014.8
20260905140403 29 69 3.2 8.0 0.00 0.00 0.00 71 1014.8
20260905135903 29 105 3.2 4.8 0.00 0.00 0.00 70 1014.9
20260905135403 29 99 3.2 8.0 0.00 0.00 0.00 71 1014.9
20260905134904 29 106 4.8 8.0 0.00 0.00 0.00 71 1014.9
20260905134403 29 157 1.6 4.8 0.00 0.00 0.00 73 1015.4
20260905133903 28 76 0.0 1.6 0.00 0.00 0.00 76 1015.4
20260905133403 28 76 1.6 3.2 0.00 0.00 0.00 75 1015.4
20260905131903 26 76 0.0 1.6 0.00 0.00 0.00 82 1015.4
20260905130902 25 76 0.0 0.0 0.00 0.00 0.00 86 1015.3
20260905130404 25 76 0.0 3.2 0.00 0.00 0.00 87 1015.3
20260905125903 24 76 0.0 1.6 0.00 0.00 0.00 90 1015.3